Simultaneous Nadir Overpasses (SNOs) Predictions

Prediction of SNOs between NOAA-21 and NOAA-19 Satellite Orbit:

Table of predicted SNOs for the next 14.0 days since TLE Epoch: 4/26/2025
Index Date (NOAA-21) Time (NOAA-21) Lat,Lon (NOAA-21) SZA (NOAA-21 ) Date (NOAA-19) Time (NOAA-19) Lat,Lon (NOAA-19) SZA (NOAA-19 ) Distance(km) Time Diff (sec)
1 04/28/2025 07:35:45 70.63, 61.60 56.31 04/28/2025 07:34:38 70.61, 59.18 56.39 89.47 67
2 04/28/2025 08:26:39 -71.14,-131.94 123.17 04/28/2025 08:25:26 -71.13,-132.67 123.15 26.49 73
3 04/28/2025 09:17:29 71.36, 34.99 57.05 04/28/2025 09:16:20 71.36, 35.01 57.06 0.61 69
4 04/28/2025 10:08:13 -71.35,-157.67 122.97 04/28/2025 10:07:18 -71.36,-157.74 122.95 2.63 55
5 04/28/2025 10:59:00 71.41, 9.52 57.09 04/28/2025 10:58:16 71.39, 9.58 57.07 3.12 44
6 04/28/2025 11:49:44 -71.40, 176.86 122.94 04/28/2025 11:49:14 -71.39, 176.83 122.95 1.65 30
7 04/28/2025 12:40:30 71.41, -15.85 57.07 04/28/2025 12:40:12 71.42, -15.86 57.07 0.64 18
8 04/28/2025 13:31:14 -71.40, 151.49 122.96 04/28/2025 13:31:10 -71.42, 151.40 122.94 3.63 4
9 04/28/2025 14:22:01 71.47, -41.32 57.10 04/28/2025 14:22:08 71.45, -41.29 57.08 2.27 7
10 04/28/2025 15:12:45 -71.45, 126.02 122.93 04/28/2025 15:13:06 -71.45, 125.97 122.94 1.87 21
11 04/28/2025 16:03:31 71.47, -66.69 57.08 04/28/2025 16:04:04 71.48, -66.72 57.08 1.50 33
12 04/28/2025 16:54:16 -71.50, 100.55 122.90 04/28/2025 16:55:02 -71.48, 100.54 122.93 3.14 46
13 04/28/2025 17:45:02 71.52, -92.16 57.11 04/28/2025 17:46:00 71.50, -92.15 57.09 1.55 58
14 04/28/2025 18:35:46 -71.50, 75.18 122.92 04/28/2025 18:36:58 -71.50, 75.11 122.93 2.46 72
15 04/28/2025 19:26:39 71.88,-118.19 57.47 04/28/2025 19:27:50 71.84,-117.00 57.38 41.54 71



Historial Predications of SNOs between NOAA-21 and NOAA-19
